CZ-6A DEB

Satellite information

Favourite Embed

Satellite Type and Status

DEBRISIN ORBIT

Key statistics

Satellite CZ-6A DEB at a glance.

Uptime

495

Days in orbit

Revolutions

≈ 14.6

Per day

Orbit

LEO

Low Earth Orbit

Inclination

89.0

Latest

Satellite identification and parameters

Extended collection of information and parameters for CZ-6A DEB.

Object identification

Identified? True

Debris? True

Object name: CZ-6A DEB

International designator: 2024-140VT

Object number (NORAD): 61354

Object ID (CCSDS): 61354

Country: PEOPLES REPUBLIC OF CHINA (PRC)

Current information (Y/N): Y

RCS size: SMALL

Orbital parameters

Period: 98.643 minutes

Inclination: 89.0178 deg

SMA: 7071.91 km

Apoapsis: 775.021 km

Periapsis: 612.528 km

RAAN: 293.3236 deg

Eccentricy: 0.01148866

Argument of periapsis: 169.713 deg

Mean anomaly: 190.6475 deg

Mean motion: 14.59814586 rev/day

Mean motion (dot): 0.00003931 rev/day2

B* drag term: 0.0007464275 1/REarth

Two-line elements (TLE)

Creation date: Dec. 12, 2025, 3:16 a.m.

Reference frame: TEME

Reference center: EARTH

Epoch: Dec. 11, 2025, 7:55 p.m. UTC

TLE line 0: 0 CZ-6A DEB

TLE line 1: 1 61354U 24140VT 25345.83027214 .00003931 00000-0 74643-3 0 9999

TLE line 2: 2 61354 89.0178 293.3236 0114887 169.7130 190.6475 14.59814586 67756

Live tracking on map

Real-time ground track for satellite CZ-6A DEB.

In-orbit conjunctions

A list of the most updated potential collisions computed for object CZ-6A DEB.

Target Orbit TCA Probability of collision Miss distance Type
DMSP 5D-3 F17 DEB SSO 2025-11-18 22:46:51 0.0002583872 148.0 (m) DEBRIS
RUBIN 2 LEO 2025-07-21 11:48:00 0.0002430297 461.0 (m) PAYLOAD
COSMOS 249 DEB * LEO 2024-11-09 14:49:11 0.0008036047 103.0 (m) DEBRIS
COSMOS 1275 DEB LEO 2024-11-01 06:35:52 0.0001280783 580.0 (m) DEBRIS
OSCAR 19 (LUSAT) SSO 2024-10-31 17:20:53 0.0002077248 830.0 (m) PAYLOAD

Associated space launch

18 Low Earth Orbit communication satellites with Ku, Q and V band payloads for the G60 constellation operated by Shanghai Spacecom Satellite Technology (SSST) with funding backed by the Shanghai local government. Initial constellation will consist of 1296 satellites by 2027 with long term plans to expand it to 12000 satellites.

CZ-6A DEB was lifted into orbit during the mission ‘Long March 6A | G60 Polar Group 01’, on board a Long March 6A space rocket.

The launch took place on Aug. 6, 2024, 6:42 a.m. from Launch Complex 9A.

For more information about the launch, click the button.

Launch to space Long March 6A | G60 Polar Group 01
Long March 6A | G60 Polar Group 01

Agency: N/A

Status: Launch Successful

Launch date: Aug. 6, 2024, 6:42 a.m. UTC

Rocket: Long March 6A

Launch pad: Launch Complex 9A

Location: Taiyuan Satellite Launch Center, People's Republic of China

...

Latest news about this satellite

News about space launch
Brightness of first Chinese broadband constellation satellites alarms astronomers

The first satellites of a Chinese broadband constellation are significantly brighter than those of Western systems, posing a new challenge for astronomers.

News about space launch
Chinese rocket stage breaks up into cloud of more than 700 pieces of space debris

HELSINKI — A Chinese Long March 6A rocket’s upper stage has fragmented into a cloud of over 700 pieces of space debris, adding to concerns about long-term orbital safety. China […]

News about space launch
China's Thousand Sails Megaconstellation Kicks Off with Dangerous Debris Field

China's Thousand Sails Megaconstellation Kicks Off with Dangerous Debris Field


Newsletter sign-up

Weekly statistics, charts and insights to help you stay on top of the space industry.